Wind_Speed
13 17 20 24 28 32 35 39 42 44 47 49 50 51 51 51 52 53 56 59 61 63 65 67 69 70 71 70 69 67 66 65 65 65 66 68 70 71 72 72 71 67 60 49
14 17 19 22 26 30 34 38 41 45 48 51 53 53 53 53 54 54 56 59 61 63 64 66 68 69 70 69 67 66 65 64 63 64 65 66 68 69 70 71 71 69 64 55
15 17 19 21 25 28 32 37 42 45 49 52 55 56 56 55 55 55 57 59 61 62 64 65 67 68 68 67 66 65 64 63 62 62 63 64 66 67 68 69 69 69 66 61
17 18 21 24 26 29 32 37 41 44 49 53 56 58 58 58 57 56 57 59 60 62 63 64 65 66 67 66 66 64 63 62 61 61 62 63 64 65 66 67 68 68 66 64
20 21 21 24 28 31 34 36 40 44 49 53 56 59 60 60 59 57 57 59 60 61 62 63 64 65 65 65 65 63 62 61 60 60 60 61 62 63 65 65 66 67 66 64
23 25 26 27 30 33 36 38 42 46 49 53 56 59 61 62 60 58 58 59 60 61 61 62 63 64 64 64 64 63 61 60 59 59 59 60 60 62 63 64 64 65 66 65
25 26 28 30 32 34 36 40 43 46 49 52 55 59 61 63 62 60 59 59 60 61 61 61 62 62 63 63 63 62 60 59 58 58 58 59 59 60 62 63 64 64 64 64
27 28 30 31 33 35 37 40 42 45 48 51 54 58 61 63 63 61 60 59 60 60 60 61 61 61 62 62 62 61 60 58 58 57 57 57 57 58 59 60 61 61 61 62
30 29 32 33 34 36 38 40 43 45 48 51 54 57 60 63 64 63 61 60 60 60 60 60 60 60 60 61 61 60 59 58 57 57 56 56 56 56 57 58 58 59 59 59
32 31 34 35 36 38 40 42 44 46 48 51 53 56 60 62 64 64 62 60 60 59 59 59 59 59 59 59 60 59 57 56 56 55 56 55 55 55 55 55 56 57 58 58
35 34 36 35 38 40 42 44 45 46 49 51 53 56 59 61 64 64 63 61 60 59 58 58 58 58 58 58 58 58 57 55 54 54 54 54 54 54 54 55 55 56 56 56
37 38 40 38 40 42 44 45 46 47 49 51 53 55 58 60 63 64 64 62 60 58 57 57 57 56 56 57 56 56 56 54 53 52 52 53 53 54 54 53 54 54 55 55
40 41 42 41 42 44 46 47 47 48 49 51 53 55 57 59 61 63 64 62 60 58 57 56 56 55 55 55 55 55 54 53 52 51 51 51 51 51 51 52 52 52 52 52
40 42 43 43 44 46 48 49 49 49 50 51 53 54 56 58 60 62 64 63 60 58 56 55 55 54 54 54 54 53 53 52 51 50 50 50 50 50 50 49 49 49 50 50
39 43 45 45 46 47 49 50 50 50 51 52 53 54 55 57 59 61 63 63 61 57 55 54 53 53 53 52 52 52 52 51 50 50 49 49 49 49 50 49 48 47 47 47
41 44 45 46 47 49 50 51 51 51 52 52 53 53 55 56 58 60 62 62 61 57 54 53 52 51 51 51 51 51 50 50 49 49 48 48 48 48 48 48 48 47 46 45
44 44 45 47 48 49 51 52 53 53 53 53 53 53 54 55 57 59 60 61 61 58 54 52 51 50 50 49 49 49 49 49 48 48 47 46 46 47 47 47 47 47 46 45
49 48 48 49 50 51 52 53 54 54 54 53 52 52 53 55 57 58 59 61 61 57 53 51 49 49 48 48 48 48 48 48 48 47 46 46 45 45 46 46 46 46 45 44
55 54 53 53 52 52 53 54 55 55 55 53 52 52 53 54 55 57 58 59 60 57 53 50 48 48 47 47 46 47 47 47 47 46 46 45 44 44 45 45 45 44 44 43
62 60 59 58 56 54 54 54 56 56 55 54 52 52 52 53 54 56 57 58 59 57 53 49 47 46 46 45 45 45 45 46 46 46 45 45 44 44 43 43 43 43 43 42
68 65 63 60 57 55 54 55 56 56 56 54 53 52 52 53 53 54 55 57 58 57 52 48 46 45 44 44 44 44 44 44 45 45 44 44 43 43 42 42 42 42 41 41
71 68 66 62 59 56 55 56 57 57 56 55 53 52 52 52 53 53 54 55 57 56 51 47 44 44 43 43 43 43 43 43 43 43 43 43 43 42 42 41 41 41 40 40
68 66 64 62 59 57 57 57 57 57 57 55 53 52 51 52 52 52 53 54 56 54 50 45 43 42 42 42 42 41 41 42 42 42 42 42 42 41 41 40 40 40 39 38
65 63 60 58 57 56 56 57 58 58 57 55 53 52 51 51 51 51 52 54 55 53 48 44 42 41 41 40 40 40 40 40 41 41 41 41 41 40 40 39 39 39 38 37
60 57 56 54 53 53 55 57 58 58 57 55 53 52 51 50 50 50 51 53 53 51 47 43 40 39 39 39 39 39 39 39 39 40 40 40 40 39 39 38 38 37 37 36
57 53 52 52 52 53 55 57 58 57 56 55 54 52 51 50 49 50 51 52 51 49 45 41 39 38 38 38 38 38 38 38 38 39 39 39 39 38 38 37 37 36 35 35
57 53 51 51 51 53 54 55 56 56 55 55 54 52 50 49 49 50 50 51 49 46 43 39 37 36 36 37 36 36 37 37 37 38 38 38 38 37 37 36 35 35 34 33
Wind_Direction
356 1 3 3 3 3 4 5 4 2 0 358 356 352 350 348 346 344 344 345 346 347 348 349 349 350 351 351 351 352 354 355 356 357 359 1 3 4 6 7 9 9 9 6
340 347 353 355 357 359 359 1 2 2 1 359 357 354 351 349 347 345 345 347 347 348 349 350 350 351 352 352 353 354 355 357 358 358 0 3 4 6 7 9 10 11 12 11
322 332 340 346 352 355 356 357 359 359 359 359 358 355 353 350 348 347 347 347 348 349 350 351 352 353 353 353 354 355 357 358 359 360 1 4 6 7 8 10 12 13 14 14
311 322 333 339 344 349 354 354 355 356 357 357 357 356 354 351 349 348 347 347 348 349 351 352 353 353 354 354 355 357 358 359 360 1 2 4 6 8 9 11 13 14 15 16
303 314 325 331 337 342 348 351 352 353 355 355 355 355 354 352 350 348 347 348 349 350 351 352 353 354 354 355 356 358 359 -0 1 2 4 6 7 9 10 12 13 15 16 17
299 309 320 326 331 337 341 346 349 351 352 353 353 354 353 352 350 348 347 348 349 350 351 353 354 354 355 356 357 359 360 1 1 3 5 7 8 9 11 12 14 15 16 18
293 303 312 319 326 332 338 342 345 347 349 350 351 352 352 352 350 348 348 348 349 350 351 353 354 355 356 357 358 359 0 1 2 4 5 7 9 10 11 13 14 15 16 18
287 298 306 314 320 326 331 336 340 343 345 347 348 349 350 351 350 349 347 347 348 350 351 353 354 355 356 357 358 359 0 2 3 4 6 7 9 10 12 13 14 15 16 18
284 294 300 307 313 318 325 331 335 339 342 344 345 347 348 349 350 349 347 347 348 349 350 352 354 355 356 357 358 359 0 1 2 4 6 8 9 10 11 13 14 14 16 17
281 289 294 301 307 313 320 326 331 335 338 341 342 344 346 347 348 348 347 347 347 348 349 351 353 355 356 357 358 359 360 1 2 3 5 7 8 9 10 12 13 14 16 17
278 284 287 294 301 307 314 321 326 330 334 337 339 341 343 345 346 347 347 346 346 347 348 350 352 354 355 356 357 359 359 0 1 2 3 5 6 8 9 10 12 13 15 16
276 281 285 291 297 303 310 316 321 326 330 334 336 338 340 342 344 345 346 346 345 346 347 349 351 353 355 356 357 358 359 360 1 2 3 4 4 5 7 9 10 11 13 15
275 279 284 290 295 301 306 311 316 321 326 330 333 335 337 340 342 343 345 345 345 344 346 348 350 352 354 355 356 357 358 359 0 1 2 3 5 5 5 6 8 10 11 12
272 277 281 287 292 297 302 306 311 316 321 325 329 332 334 337 339 341 343 344 344 343 344 346 349 351 353 354 356 356 357 358 359 0 1 2 3 5 5 6 7 8 9 10
269 273 278 283 288 293 297 302 307 312 316 321 325 328 331 333 336 339 341 343 343 342 343 345 347 349 351 353 355 356 356 357 358 359 360 1 2 3 4 5 6 6 7 9
265 269 274 279 284 289 293 298 302 307 312 316 321 324 327 330 333 336 339 341 342 341 341 343 345 348 350 352 353 355 355 356 356 357 358 359 0 2 2 3 4 5 6 7
264 267 271 275 279 284 288 293 297 302 307 312 316 320 324 327 330 334 336 339 340 339 339 341 343 346 348 350 352 353 354 355 355 356 357 358 359 0 1 2 3 4 4 5
263 265 267 271 275 279 283 288 293 297 302 307 312 316 320 324 327 331 334 336 338 338 337 339 342 344 347 349 350 352 353 354 354 355 356 356 357 359 360 1 2 3 3 4
263 264 265 268 271 274 279 285 289 294 299 303 308 312 316 320 324 327 331 334 336 337 336 337 340 343 345 347 349 351 352 353 353 354 354 355 355 357 358 360 1 2 2 3
262 263 265 266 269 272 276 281 285 290 295 299 304 308 313 317 320 324 328 331 334 335 334 335 338 341 343 345 347 349 351 352 352 352 353 353 354 355 357 358 359 0 1 1
261 261 263 264 267 269 273 277 281 286 290 295 300 304 309 313 317 321 325 328 332 333 332 332 335 338 341 343 345 347 349 350 351 351 351 352 353 354 355 356 358 359 359 0
260 261 261 262 264 267 270 273 277 282 287 291 295 300 305 309 313 317 322 325 329 331 330 330 333 336 339 341 343 346 348 349 349 350 350 351 351 352 353 355 356 357 358 359
261 261 261 262 262 264 266 270 274 278 282 286 291 296 301 305 310 314 319 323 326 328 328 328 330 334 337 339 342 344 346 347 348 349 349 350 350 350 351 353 354 355 356 357
263 263 262 260 260 261 263 266 269 273 277 282 287 292 297 301 306 310 315 319 323 325 325 326 328 332 335 338 340 342 344 346 347 347 348 348 349 349 350 351 353 354 355 356
262 262 261 260 258 258 259 261 264 268 273 278 283 288 293 298 302 307 312 316 320 322 323 323 325 330 333 336 338 340 342 344 345 346 347 347 347 348 348 350 351 352 354 355
258 258 258 256 255 255 256 258 261 265 270 275 279 284 289 294 299 304 309 313 317 319 320 320 323 327 331 334 336 338 340 342 343 344 345 346 346 347 348 348 350 351 353 354
254 254 253 252 252 252 254 256 260 263 267 272 276 281 286 291 296 302 306 310 314 316 317 318 320 324 328 332 334 336 338 340 342 343 344 344 345 346 346 347 349 350 352 353
Height
5864 5860 5855 5851 5846 5839 5833 5826 5819 5812 5803 5794 5783 5773 5763 5752 5741 5730 5719 5707 5693 5679 5665 5649 5634 5617 5601 5584 5567 5552 5536 5520 5505 5489 5473 5456 5439 5422 5404 5386 5367 5350 5334 5321
5861 5858 5853 5849 5844 5838 5831 5824 5817 5808 5800 5791 5780 5770 5759 5748 5737 5726 5714 5702 5689 5675 5660 5645 5630 5614 5597 5581 5566 5550 5535 5519 5504 5489 5474 5458 5442 5425 5408 5390 5373 5356 5340 5326
5859 5855 5852 5848 5843 5836 5829 5821 5813 5805 5797 5787 5777 5766 5755 5744 5733 5722 5710 5698 5685 5671 5656 5641 5626 5611 5595 5580 5565 5549 5534 5519 5504 5490 5475 5459 5444 5428 5412 5396 5379 5362 5346 5332
5856 5853 5848 5846 5838 5833 5826 5819 5810 5802 5793 5784 5774 5763 5751 5740 5729 5717 5706 5694 5681 5667 5653 5638 5623 5608 5594 5579 5563 5548 5533 5519 5505 5491 5476 5461 5447 5432 5417 5401 5385 5370 5354 5339
5851 5848 5845 5841 5834 5828 5822 5816 5808 5799 5790 5780 5770 5759 5748 5737 5725 5713 5702 5690 5677 5664 5650 5635 5621 5606 5592 5577 5562 5548 5533 5519 5506 5493 5478 5464 5450 5436 5422 5407 5392 5377 5362 5347
5846 5841 5839 5837 5830 5822 5817 5810 5803 5794 5785 5776 5766 5756 5746 5734 5722 5710 5698 5686 5674 5661 5647 5633 5619 5605 5591 5577 5562 5548 5534 5521 5508 5494 5480 5466 5453 5439 5425 5411 5397 5383 5369 5355
5840 5836 5834 5830 5824 5818 5813 5807 5798 5789 5781 5772 5763 5754 5743 5731 5719 5707 5695 5683 5671 5658 5645 5631 5617 5603 5590 5576 5562 5548 5535 5522 5509 5496 5482 5469 5456 5443 5429 5416 5402 5388 5375 5362
5835 5832 5830 5824 5818 5813 5809 5802 5794 5786 5778 5769 5760 5750 5739 5728 5716 5704 5692 5680 5668 5655 5642 5629 5615 5602 5589 5576 5562 5548 5536 5523 5511 5498 5485 5472 5459 5447 5434 5422 5409 5397 5385 5372
5830 5829 5823 5818 5813 5808 5803 5797 5789 5782 5774 5765 5756 5746 5736 5725 5713 5701 5689 5677 5665 5653 5640 5627 5614 5601 5588 5575 5561 5548 5535 5523 5511 5500 5488 5476 5464 5452 5440 5429 5417 5405 5392 5380
5822 5822 5816 5811 5807 5802 5796 5791 5784 5777 5769 5761 5752 5743 5733 5722 5710 5698 5686 5674 5662 5650 5638 5625 5613 5600 5587 5574 5561 5548 5536 5524 5512 5501 5490 5479 5468 5457 5445 5434 5423 5411 5399 5387
5813 5813 5809 5806 5800 5795 5790 5785 5778 5772 5764 5756 5748 5739 5729 5718 5707 5695 5683 5671 5660 5648 5636 5624 5611 5599 5586 5573 5561 5549 5536 5525 5513 5502 5490 5480 5470 5460 5449 5438 5426 5415 5404 5393
5805 5803 5799 5798 5794 5789 5784 5778 5772 5766 5759 5751 5743 5734 5725 5715 5704 5692 5680 5669 5657 5645 5634 5622 5610 5598 5585 5573 5561 5549 5537 5526 5515 5504 5493 5482 5471 5460 5450 5441 5430 5419 5409 5398
5795 5793 5790 5788 5785 5780 5775 5770 5765 5759 5753 5746 5738 5730 5721 5711 5700 5689 5677 5666 5654 5643 5632 5620 5608 5597 5584 5572 5560 5549 5538 5527 5517 5506 5496 5486 5476 5465 5455 5444 5434 5424 5415 5405
5786 5783 5780 5779 5776 5772 5767 5762 5758 5752 5746 5739 5732 5724 5716 5706 5696 5685 5674 5663 5651 5640 5629 5618 5607 5595 5583 5572 5560 5549 5539 5528 5518 5508 5497 5487 5478 5468 5458 5449 5439 5429 5420 5410
5777 5773 5771 5769 5767 5763 5758 5754 5749 5744 5738 5733 5726 5719 5710 5701 5692 5681 5671 5659 5648 5637 5626 5615 5605 5594 5582 5571 5560 5549 5538 5528 5518 5508 5498 5489 5479 5470 5460 5451 5442 5433 5424 5415
5766 5763 5761 5759 5756 5752 5748 5744 5740 5736 5730 5725 5719 5712 5705 5696 5687 5677 5666 5655 5645 5634 5623 5613 5603 5592 5581 5570 5559 5548 5538 5528 5518 5508 5499 5489 5480 5471 5462 5453 5444 5435 5427 5419
5752 5752 5750 5747 5745 5742 5738 5735 5731 5726 5722 5717 5711 5705 5698 5690 5681 5672 5662 5651 5641 5630 5620 5610 5600 5590 5579 5569 5558 5548 5538 5528 5518 5508 5499 5490 5481 5472 5463 5454 5446 5437 5428 5420
5738 5737 5736 5734 5732 5730 5727 5724 5720 5716 5712 5708 5703 5697 5691 5683 5675 5667 5657 5647 5637 5626 5616 5607 5597 5587 5577 5567 5557 5547 5537 5527 5517 5508 5499 5490 5482 5473 5464 5456 5447 5438 5430 5422
5720 5720 5719 5718 5717 5716 5715 5712 5709 5705 5702 5698 5694 5689 5683 5676 5669 5661 5652 5642 5632 5622 5613 5603 5594 5584 5574 5565 5555 5545 5536 5526 5517 5508 5499 5490 5482 5473 5465 5456 5448 5439 5432 5424
5700 5701 5701 5702 5703 5703 5702 5700 5697 5694 5691 5687 5683 5679 5674 5668 5662 5654 5646 5637 5627 5618 5608 5599 5590 5581 5571 5562 5553 5544 5534 5525 5516 5507 5498 5490 5481 5473 5465 5456 5448 5440 5433 5425
5678 5680 5681 5684 5687 5689 5688 5686 5684 5681 5679 5676 5673 5669 5665 5660 5654 5647 5639 5631 5622 5612 5603 5594 5586 5577 5568 5559 5550 5541 5532 5523 5514 5506 5497 5489 5480 5472 5464 5457 5449 5441 5433 5426
5656 5659 5663 5667 5671 5673 5674 5672 5670 5668 5666 5664 5661 5658 5655 5650 5645 5639 5632 5624 5616 5607 5597 5589 5581 5573 5564 5556 5547 5539 5530 5521 5513 5504 5496 5487 5479 5472 5464 5456 5449 5441 5434 5426
5635 5639 5644 5650 5654 5657 5658 5657 5656 5655 5653 5651 5649 5647 5644 5640 5635 5630 5624 5616 5608 5600 5592 5584 5576 5568 5560 5552 5544 5536 5527 5519 5511 5502 5494 5486 5478 5471 5463 5456 5448 5441 5434 5427
5614 5619 5625 5630 5635 5639 5641 5641 5640 5640 5639 5638 5637 5636 5633 5630 5626 5621 5615 5608 5601 5593 5585 5578 5571 5563 5556 5548 5540 5532 5524 5516 5508 5500 5492 5484 5476 5469 5462 5455 5447 5440 5433 5426
5594 5600 5606 5612 5617 5621 5623 5623 5624 5624 5625 5625 5624 5623 5621 5619 5616 5611 5606 5600 5593 5586 5578 5571 5565 5558 5551 5544 5536 5529 5521 5513 5506 5498 5490 5482 5475 5467 5460 5453 5446 5439 5432 5426
5576 5582 5588 5594 5598 5602 5604 5606 5607 5609 5610 5611 5611 5610 5609 5608 5605 5601 5596 5590 5584 5578 5571 5565 5558 5552 5546 5539 5532 5525 5518 5510 5503 5495 5487 5480 5472 5465 5458 5451 5445 5438 5431 5425
5556 5564 5570 5576 5580 5584 5587 5589 5592 5594 5596 5597 5598 5598 5597 5596 5594 5590 5586 5581 5575 5569 5563 5557 5552 5546 5540 5533 5527 5520 5513 5506 5499 5492 5485 5477 5470 5463 5456 5450 5443 5437 5430 5424